Terminal Aerodrome Forecast
Issued by NWS

Home | Current Version | Previous Version | Text Only | Print | Product List | Glossary On
Versions: 1 2 3 4 5 6 7 8 9 10 11 12 13 14 15 16 17 18 19 20 21 22 23 24 25 26 27 28
000
FTAK31 PAFA 231131
TAFAOT
TAF
PAOT 231131Z 2312/2412 21015KT P6SM OVC040
     FM231500 21018KT 6SM -SHRA BKN015 OVC030
     FM240200 21013KT P6SM OVC030
     FM240500 21012KT P6SM OVC050=

USA.gov is the U.S. government's official web portal to all federal, state and local government web resources and services.